Istanbul, Turkey

11:22 AM EET on February 11, 2016 (GMT +0200)
Istanbul

Weather History for 17060 - June, 2014

Change the Weather History Date:

Tuesday, June 3, 2014

  Actual Average Record
Temperature  
Mean Temperature 66 °F -  
Max Temperature 73 °F 78 °F - ()
Min Temperature 58 °F 64 °F - ()
Growing Degree Days 16 (Base 50)    
Moisture  
Dew Point 58 °F    
Average Humidity 75    
Maximum Humidity 94    
Minimum Humidity 49    
Precipitation  
Precipitation 0.00 in - - ()
Sea Level Pressure  
Sea Level Pressure 29.97 in    
Wind  
Wind Speed 4 mph ()    
Max Wind Speed 12 mph    
Max Gust Speed -    
Visibility 5.9 miles    
Events Rain    
T = Trace of Precipitation, MM = Missing Value Source: Averaged Metar Reports

Daily Weather History Graph

Daily Weather History Graph

Search for Another Location

Airport or City:

Trip Planner

Search our weather history database for the weather conditions in past years. The results will help you decide how hot, cold, wet, or windy it might be!

Date:

Astronomy

Jun. 03, 2014 Rise Set
Actual Time 5:34 AM EEST 8:31 PM EEST
Civil Twilight 5:01 AM EEST 9:04 PM EEST
Nautical Twilight 4:19 AM EEST 9:46 PM EEST
Astronomical Twilight 3:31 AM EEST 10:35 PM EEST
Moon 10:40 AM EEST (6/3) No Moon Set
Length of Visible Light 16h 03m
Length of Day
14h 57m
Waxing Crescent, 27% of the Moon is Illuminated
Jun 3
Waxing Crescent
Jun 5
First Quarter
Jun 13
Full
Jun 19
Last Quarter
Jun 27
New

Hourly Weather History & Observations

Time (EEST) Temp. Dew Point Humidity Pressure Visibility Wind Dir Wind Speed Gust Speed Precip Events Conditions
12:00 AM 60 °F 56 °F 82% 29.95 in 6 mi NW 2.3 mph - - Rain Light Rain
12:20 AM 59.0 °F 55.4 °F 88% 29.95 in 6.2 mi West 3.5 mph - N/A   Mostly Cloudy
12:50 AM 59.0 °F 55.4 °F 88% 29.95 in 6.2 mi NNW 5.8 mph - N/A   Mostly Cloudy
1:20 AM 59.0 °F 55.4 °F 88% 29.95 in 6.2 mi WNW 3.5 mph - N/A   Scattered Clouds
1:50 AM 60.8 °F 55.4 °F 82% 29.95 in 6.2 mi WSW 3.5 mph - N/A   Mostly Cloudy
2:20 AM 60.8 °F 55.4 °F 82% 29.95 in 6.2 mi NW 4.6 mph - N/A   Mostly Cloudy
2:50 AM 60.8 °F 55.4 °F 82% 29.95 in 6.2 mi West 2.3 mph - N/A   Scattered Clouds
3:00 AM 60 °F 56 °F 81% 29.96 in 6 mi West 2.3 mph - -   Partly Cloudy
3:20 AM 60.8 °F 57.2 °F 88% 29.95 in 6.2 mi NNW 2.3 mph - N/A   Scattered Clouds
3:50 AM 60.8 °F 57.2 °F 88% 29.95 in 6.2 mi NNW 2.3 mph - N/A   Scattered Clouds
4:20 AM 59.0 °F 57.2 °F 94% 29.95 in 3.7 mi NW 1.2 mph - N/A   Scattered Clouds
4:50 AM 59.0 °F 57.2 °F 94% 29.95 in 4.3 mi NW 2.3 mph - N/A   Scattered Clouds
5:20 AM 59.0 °F 57.2 °F 94% 29.98 in 3.7 mi NNW 2.3 mph - N/A   Mostly Cloudy
5:50 AM 59.0 °F 57.2 °F 94% 29.98 in 3.7 mi NNW 3.5 mph - N/A   Scattered Clouds
6:00 AM 59 °F 57 °F 91% 29.98 in 4 mi NNW 3.5 mph - -   Mist
6:20 AM 60.8 °F 59.0 °F 94% 29.98 in 3.7 mi Variable 1.2 mph - N/A   Scattered Clouds
6:50 AM 60.8 °F 59.0 °F 94% 29.98 in 3.7 mi NNW 2.3 mph - N/A   Scattered Clouds
7:20 AM 62.6 °F 59.0 °F 88% 29.98 in 4.3 mi NNW 3.5 mph - N/A   Scattered Clouds
7:50 AM 62.6 °F 57.2 °F 82% 29.98 in 4.3 mi NW 4.6 mph - N/A   Scattered Clouds
8:20 AM 64.4 °F 55.4 °F 73% 29.98 in 6.2 mi Variable 3.5 mph - N/A   Scattered Clouds
8:50 AM 66.2 °F 55.4 °F 68% 30.01 in 6.2 mi SW 4.6 mph - N/A   Scattered Clouds
9:00 AM 65 °F 56 °F 64% 30.00 in 6 mi SW 4.6 mph - -   Partly Cloudy
9:20 AM 66.2 °F 59.0 °F 78% 30.01 in 6.2 mi South 5.8 mph - N/A   Mostly Cloudy
9:33 AM 66.2 °F 59.0 °F 78% 30.01 in 6.2 mi South 5.8 mph - N/A   Mostly Cloudy
9:50 AM 64.4 °F 57.2 °F 77% 30.01 in 6.2 mi SSW 4.6 mph - N/A   Mostly Cloudy
10:20 AM 66.2 °F 57.2 °F 73% 30.01 in 6.2 mi SSW 4.6 mph - N/A   Mostly Cloudy
10:50 AM 66.2 °F 59.0 °F 78% 30.01 in 6.2 mi South 6.9 mph - N/A   Mostly Cloudy
11:20 AM 68.0 °F 59.0 °F 73% 30.01 in 6.2 mi South 10.4 mph - N/A   Mostly Cloudy
11:50 AM 68.0 °F 60.8 °F 78% 30.01 in 6.2 mi SSW 8.1 mph - N/A   Mostly Cloudy
12:00 PM 68 °F 60 °F 68% 30.01 in 12 mi SSW 8.1 mph - -   Mostly Cloudy
12:20 PM 68.0 °F 59.0 °F 73% 29.98 in 6.2 mi SW 6.9 mph - N/A   Mostly Cloudy
12:50 PM 68.0 °F 59.0 °F 73% 30.01 in 6.2 mi SSW 9.2 mph - N/A   Mostly Cloudy
1:20 PM 68.0 °F 59.0 °F 73% 30.01 in 6.2 mi SSW 9.2 mph - N/A   Mostly Cloudy
1:50 PM 68.0 °F 57.2 °F 68% 30.01 in 6.2 mi SW 5.8 mph - N/A   Mostly Cloudy
2:20 PM 69.8 °F 57.2 °F 64% 30.01 in 6.2 mi SSW 3.5 mph - N/A   Mostly Cloudy
2:50 PM 69.8 °F 57.2 °F 64% 29.98 in 6.2 mi WSW 5.8 mph - N/A   Mostly Cloudy
3:00 PM 69 °F 58 °F 60% 29.99 in 6 mi WSW 5.8 mph - -   Mostly Cloudy
3:20 PM 69.8 °F 57.2 °F 64% 29.98 in 6.2 mi SSW 6.9 mph - N/A   Mostly Cloudy
3:50 PM 69.8 °F 59.0 °F 68% 29.98 in 6.2 mi SSE 4.6 mph - N/A   Mostly Cloudy
4:20 PM 71.6 °F 59.0 °F 64% 29.95 in 6.2 mi SE 4.6 mph - N/A   Mostly Cloudy
4:50 PM 71.6 °F 55.4 °F 57% 29.95 in 6.2 mi ESE 6.9 mph - N/A   Mostly Cloudy
5:20 PM 71.6 °F 59.0 °F 64% 29.95 in 6.2 mi ESE 8.1 mph - N/A   Mostly Cloudy
5:50 PM 73.4 °F 59.0 °F 61% 29.92 in 6.2 mi East 8.1 mph - N/A   Scattered Clouds
6:00 PM 73 °F 58 °F 49% 29.94 in 6 mi East 8.1 mph - -   Partly Cloudy
6:20 PM 71.6 °F 57.2 °F 60% 29.92 in 6.2 mi NE 9.2 mph - N/A   Mostly Cloudy
6:50 PM 71.6 °F 59.0 °F 64% 29.92 in 6.2 mi NNE 11.5 mph - N/A   Scattered Clouds
7:20 PM 69.8 °F 59.0 °F 68% 29.92 in 6.2 mi NE 9.2 mph - N/A   Scattered Clouds
7:50 PM 69.8 °F 59.0 °F 68% 29.95 in 6.2 mi NNE 9.2 mph - N/A   Mostly Cloudy
8:20 PM 69.8 °F 59.0 °F 68% 29.95 in 6.2 mi NNE 8.1 mph - N/A   Mostly Cloudy
8:50 PM 68.0 °F 59.0 °F 73% 29.92 in 6.2 mi NNE 8.1 mph - N/A   Mostly Cloudy
9:00 PM 68 °F 59 °F 66% 29.94 in 6 mi NNE 8.1 mph - -   Scattered Clouds
9:20 PM 68.0 °F 59.0 °F 73% 29.92 in 6.2 mi NNE 8.1 mph - N/A   Mostly Cloudy
9:50 PM 68.0 °F 59.0 °F 73% 29.95 in 6.2 mi NE 6.9 mph - N/A   Mostly Cloudy
10:20 PM 68.0 °F 59.0 °F 73% 29.92 in 6.2 mi NE 6.9 mph - N/A   Mostly Cloudy
10:50 PM 68.0 °F 57.2 °F 68% 29.95 in 6.2 mi East 5.8 mph - N/A   Mostly Cloudy
11:20 PM 68.0 °F 57.2 °F 68% 29.92 in 6.2 mi NE 6.9 mph - N/A   Mostly Cloudy
11:50 PM 68.0 °F 57.2 °F 68% 29.92 in 6.2 mi ENE 6.9 mph - N/A   Mostly Cloudy